[[{"header":{"parameterUnit":"m.s-1","parameterCategory":1,"la1":30.2991,"la2":30.254,"lo1":-89.0895,"lo2":-89.0444,"dy":0.0017,"dx":0.0017,"nx":28,"ny":28,"refTime":"2025-04-27T21:00:00:Z","depth":0,"parameterNumber":2,"parameterNumberName":"U-component_of_WINDS"},"data":[0,0,0,0,0,0,0,0,0,0,0,0,0,0,0,0,0,0,0,0,0,0,0,0,0,0,0,0,0,0,0,0,0,0,0,0,0,0,0,0,0,0,0,0,0,0,0,0,0,0,0,0,0,0,0,0,0,0,-1.2559,-1.2558,0,-1.2522,-1.2521,-1.2521,-1.2483,-1.2483,-1.2482,-1.2482,-1.2442,-1.2441,-1.2441,0,0,0,0,0,0,0,0,0,0,0,0,0,-1.2597,-1.2597,-1.2559,-1.2558,-1.2558,-1.2522,-1.2521,-1.2521,-1.2483,-1.2483,-1.2482,-1.2481,-1.2442,-1.2441,-1.2441,0,0,0,0,0,0,0,0,0,0,0,0,0,-1.2572,-1.2596,-1.2559,-1.2535,-1.2532,-1.2522,-1.2521,-1.2521,-1.2483,-1.2483,-1.2482,-1.2481,-1.2442,-1.2441,-1.244,-1.245,0,0,-1.2438,-1.2437,0,0,0,0,0,0,0,0,-1.2574,-1.2571,-1.2539,-1.2536,-1.2534,-1.2506,-1.252,-1.2497,-1.2483,-1.2502,-1.2482,-1.2481,-1.2464,-1.2461,-1.2456,-1.2448,-1.2447,-1.2438,-1.2437,-1.2437,-1.2436,0,0,0,0,0,0,0,-1.2576,-1.2572,-1.2544,-1.2538,-1.2535,-1.2526,-1.2522,-1.2516,-1.2487,-1.25,-1.2497,-1.2494,-1.2462,-1.2457,-1.2454,-1.2446,-1.2438,-1.2437,-1.2436,-1.2436,-1.2447,-1.2448,0,0,0,0,0,0,-1.2581,-1.2574,-1.2545,-1.2543,-1.2552,-1.2526,-1.2521,-1.2516,-1.2487,-1.2482,-1.2494,-1.2492,-1.2458,-1.2455,-1.2453,-1.2463,-1.2437,-1.2436,-1.2435,-1.2446,-1.2447,-1.2448,0,0,0,0,0,0,-1.2582,-1.2579,-1.2547,-1.2558,-1.2553,-1.2526,-1.2521,-1.2515,-1.251,-1.2483,-1.2478,-1.2494,-1.2458,-1.2454,-1.2452,-1.2461,-1.2436,-1.2435,-1.2445,-1.2446,-1.2447,-1.2484,0,0,0,0,0,0,-1.2583,-1.2579,-1.2583,-1.2558,-1.2553,-1.2546,-1.2521,-1.2515,-1.2509,-1.2505,-1.2481,-1.2476,-1.2457,-1.2453,-1.2451,-1.246,-1.2434,-1.2444,-1.2446,-1.2447,-1.2482,-1.2486,-1.249,0,0,0,0,0,-1.2585,-1.2594,-1.2583,-1.258,-1.2556,-1.2547,-1.2544,-1.2522,-1.251,-1.2513,-1.2496,-1.2477,-1.2461,-1.2453,-1.245,-1.2459,-1.2443,-1.2445,-1.2447,-1.248,-1.2486,-1.249,0,0,0,0,0,0,-1.2619,-1.259,-1.2578,-1.2579,-1.2566,-1.2541,-1.2544,-1.2528,-1.2517,-1.2514,-1.2487,-1.2482,-1.2483,-1.2471,-1.2463,-1.2468,-1.245,-1.2451,-1.2476,-1.2481,-1.2485,-1.2488,-1.2433,0,0,0,0,0,-1.2627,-1.2622,-1.2597,-1.26,-1.2595,-1.2571,-1.2566,-1.255,-1.2535,-1.2529,-1.2512,-1.2498,-1.249,-1.2485,-1.2475,-1.248,-1.2475,-1.2485,-1.2489,-1.2493,-1.2494,-1.2497,-1.2502,-1.2454,-1.2454,-1.2454,0,0,-1.2642,-1.2626,-1.2624,-1.2607,-1.2595,-1.2591,-1.2566,-1.2562,-1.2559,-1.2528,-1.2525,-1.2513,-1.2495,-1.2497,-1.2497,-1.2487,-1.2507,-1.2495,-1.2499,-1.2498,-1.25,-1.2504,-1.2508,-1.2455,-1.2455,-1.2455,0,0,-1.2669,-1.2656,-1.2658,-1.2647,-1.263,-1.2614,-1.2615,-1.2593,-1.2583,-1.258,-1.2558,-1.2554,-1.254,-1.2529,-1.2521,-1.2547,-1.2529,-1.2545,-1.2566,-1.257,-1.2574,-1.2577,-1.2586,-1.259,-1.2546,-1.2546,-1.2546,0,-1.2691,-1.2683,-1.2661,-1.2659,-1.2653,-1.2627,-1.2629,-1.2619,-1.26,-1.2596,-1.2585,-1.2569,-1.2555,-1.2555,-1.2561,-1.2556,-1.2556,-1.2547,-1.2575,-1.2578,-1.2581,-1.2589,-1.2593,-1.2548,-1.2548,-1.2548,-1.2548,0,-1.2711,-1.2707,-1.2711,-1.2694,-1.2688,-1.2688,-1.2666,-1.2663,-1.2649,-1.2634,-1.2632,-1.2616,-1.2603,-1.2602,-1.2587,-1.26,-1.2595,-1.258,-1.2561,-1.2588,-1.2595,-1.2599,-1.2551,-1.255,-1.255,-1.2549,0,0,-1.2757,-1.2729,-1.2731,-1.2724,-1.2704,-1.27,-1.27,-1.2689,-1.2687,-1.2675,-1.2674,-1.2665,-1.2652,-1.2643,-1.2627,-1.2631,-1.2653,-1.2615,-1.2615,-1.2623,-1.2667,-1.2678,-1.2682,-1.2642,-1.2642,-1.2643,-1.2669,0,-1.278,-1.2778,-1.2759,-1.2763,-1.2759,-1.2735,-1.2735,-1.2723,-1.2711,-1.2706,-1.2691,-1.2685,-1.2668,-1.2663,-1.2665,-1.265,-1.2661,-1.2648,-1.2641,-1.2641,-1.2646,-1.2686,-1.2698,-1.2722,-1.2671,-1.2672,-1.2672,0,-1.2806,-1.2797,-1.2801,-1.2783,-1.278,-1.2781,-1.277,-1.2766,-1.2752,-1.2743,-1.2735,-1.2718,-1.2717,-1.27,-1.2698,-1.269,-1.2686,-1.2678,-1.2679,-1.2677,-1.2658,-1.2686,-1.273,-1.2734,-1.2677,-1.2676,-1.2676,0,-1.284,-1.2828,-1.283,-1.2824,-1.2803,-1.2804,-1.2795,-1.278,-1.2776,-1.2767,-1.2764,-1.2754,-1.2749,-1.2743,-1.2724,-1.2713,-1.2725,-1.2706,-1.2717,-1.2718,-1.272,-1.272,-1.2764,-1.2718,-1.2718,-1.2718,-1.2718,0,-1.2867,-1.2871,-1.2845,-1.2845,-1.2849,-1.2827,-1.2831,-1.282,-1.2808,-1.2806,-1.2785,-1.2784,-1.2759,-1.2756,-1.2741,-1.2743,-1.274,-1.2733,-1.2729,-1.2735,-1.2736,-1.2731,-1.2729,-1.2719,-1.2719,-1.2718,-1.2718,0,-1.2905,-1.2887,-1.2887,-1.2868,-1.2863,-1.2866,-1.285,-1.285,-1.2837,-1.2835,-1.2833,-1.2813,-1.2807,-1.2788,-1.2778,-1.2768,-1.2775,-1.2767,-1.2779,-1.2777,-1.2789,-1.2789,-1.2832,-1.2837,-1.2788,-1.2789,-1.2789,0,-1.2924,-1.2926,-1.2907,-1.2905,-1.2897,-1.2894,-1.2889,-1.2869,-1.2866,-1.2852,-1.2854,-1.2847,-1.284,-1.2833,-1.2817,-1.281,-1.2802,-1.2818,-1.28,-1.2807,-1.2802,-1.2802,-1.2803,-1.2821,-1.2822,-1.2822,-1.2823,0,-1.2959,-1.2951,-1.2946,-1.2938,-1.2934,-1.2926,-1.2918,-1.2917,-1.2895,-1.2892,-1.2887,-1.2882,-1.2873,-1.2867,-1.2857,-1.2848,-1.2832,-1.2829,-1.2831,-1.2837,-1.2844,-1.2841,-1.2789,-1.2827,-1.2827,-1.2827,-1.2826,-1.2826,-1.2988,-1.2989,-1.2977,-1.2972,-1.2964,-1.2957,-1.2957,-1.2944,-1.294,-1.2931,-1.292,-1.2916,-1.2904,-1.289,-1.2882,-1.288,-1.2871,-1.2874,-1.2875,-1.2876,-1.2879,-1.2845,-1.2878,-1.2878,-1.2877,-1.2877,-1.2877,0,-1.3023,-1.3014,-1.301,-1.3,-1.2996,-1.2983,-1.2973,-1.2971,-1.2969,-1.2959,-1.2954,-1.2949,-1.2944,-1.2928,-1.2921,-1.2922,-1.2915,-1.2921,-1.292,-1.2919,-1.2887,-1.2886,-1.2927,-1.2927,-1.2927,-1.2927,-1.2927,-1.2927,-1.304,-1.3043,-1.3033,-1.3032,-1.3023,-1.302,-1.3016,-1.301,-1.3002,-1.2998,-1.2993,-1.2984,-1.2972,-1.2965,-1.2959,-1.2955,-1.2953,-1.2962,-1.2955,-1.2926,-1.2921,-1.2916,-1.2915,-1.2962,-1.2962,-1.2988,-1.2988,-1.2988]},{"header":{"parameterUnit":"m.s-1","parameterCategory":1,"la1":30.2991,"la2":30.254,"lo1":-89.0895,"lo2":-89.0444,"dy":0.0017,"dx":0.0017,"nx":28,"ny":28,"refTime":"2025-04-27T21:00:00:Z","depth":0,"parameterNumber":3,"parameterNumberName":"V-component_of_WINDS"},"data":[0,0,0,0,0,0,0,0,0,0,0,0,0,0,0,0,0,0,0,0,0,0,0,0,0,0,0,0,0,0,0,0,0,0,0,0,0,0,0,0,0,0,0,0,0,0,0,0,0,0,0,0,0,0,0,0,0,0,3.7898,3.7898,0,3.7902,3.7902,3.7902,3.7936,3.7937,3.7938,3.7939,3.7937,3.7937,3.7936,0,0,0,0,0,0,0,0,0,0,0,0,0,3.7917,3.7917,3.7898,3.7898,3.7898,3.7902,3.7902,3.7902,3.7936,3.7937,3.7938,3.7939,3.7938,3.7937,3.7936,0,0,0,0,0,0,0,0,0,0,0,0,0,3.7914,3.7917,3.7898,3.7916,3.7917,3.7902,3.7902,3.7902,3.7936,3.7937,3.7938,3.794,3.7938,3.7937,3.7936,3.7902,0,0,3.7932,3.7931,0,0,0,0,0,0,0,0,3.7914,3.7913,3.7913,3.7915,3.7916,3.792,3.7908,3.7902,3.7935,3.7929,3.7939,3.794,3.793,3.793,3.7927,3.7902,3.7902,3.7932,3.7931,3.793,3.793,0,0,0,0,0,0,0,3.7914,3.7913,3.79,3.7913,3.7915,3.7922,3.7923,3.7907,3.7922,3.7929,3.7932,3.7932,3.7931,3.7929,3.7928,3.7902,3.7932,3.7931,3.793,3.7929,3.785,3.7849,0,0,0,0,0,0,3.7912,3.7913,3.79,3.79,3.7918,3.7921,3.7922,3.7917,3.7922,3.7924,3.7931,3.7934,3.793,3.7929,3.7928,3.789,3.793,3.7929,3.7928,3.7852,3.785,3.7849,0,0,0,0,0,0,3.7913,3.7911,3.7899,3.7907,3.7906,3.7919,3.7914,3.7917,3.7914,3.7924,3.7926,3.7926,3.7931,3.7929,3.7909,3.789,3.7929,3.7927,3.7853,3.7851,3.7849,3.7812,0,0,0,0,0,0,3.7913,3.7911,3.7899,3.7907,3.7906,3.7881,3.7913,3.7916,3.7912,3.7916,3.7919,3.7921,3.7932,3.7911,3.7908,3.7889,3.7927,3.7855,3.7852,3.785,3.7815,3.7809,3.7804,0,0,0,0,0,3.7914,3.7887,3.7898,3.7896,3.7891,3.788,3.7879,3.7894,3.7911,3.7898,3.7905,3.7921,3.7893,3.7908,3.7905,3.7886,3.7856,3.7853,3.785,3.7818,3.781,3.7804,0,0,0,0,0,0,3.7874,3.7888,3.7901,3.7876,3.7877,3.7886,3.7871,3.7886,3.788,3.7884,3.7901,3.7901,3.7878,3.788,3.7897,3.7854,3.7877,3.7874,3.7854,3.7847,3.7841,3.7841,3.7925,0,0,0,0,0,3.7863,3.7854,3.7866,3.7843,3.7843,3.7857,3.7852,3.7864,3.7865,3.7865,3.787,3.7869,3.786,3.7854,3.7846,3.7816,3.7817,3.7801,3.7796,3.7791,3.7787,3.7773,3.7766,3.7839,3.7839,3.7839,0,0,3.7839,3.7845,3.7838,3.7835,3.7837,3.7827,3.7857,3.7844,3.7836,3.7862,3.7844,3.7847,3.7848,3.7823,3.7812,3.7823,3.7768,3.7787,3.7784,3.7782,3.7769,3.7762,3.7756,3.7837,3.7837,3.7837,0,0,3.779,3.7794,3.7776,3.7778,3.7782,3.7791,3.7787,3.7794,3.7798,3.7781,3.78,3.7791,3.7775,3.7775,3.7772,3.7726,3.774,3.7723,3.7693,3.7678,3.7673,3.7668,3.7651,3.7645,3.7719,3.7719,3.7719,0,3.7759,3.7745,3.7764,3.7751,3.7749,3.7775,3.7756,3.7757,3.7757,3.7754,3.7768,3.775,3.7752,3.7728,3.7717,3.7714,3.7709,3.7722,3.7672,3.7668,3.7663,3.7647,3.7641,3.7717,3.7717,3.7717,3.7717,0,3.7707,3.7698,3.7682,3.7684,3.7681,3.7664,3.768,3.7674,3.7687,3.7694,3.7676,3.768,3.7674,3.7669,3.768,3.7646,3.7654,3.767,3.7693,3.7654,3.7639,3.7633,3.7714,3.7714,3.7715,3.7716,0,0,3.7631,3.7646,3.764,3.7642,3.7649,3.7641,3.7626,3.7623,3.7617,3.7617,3.7605,3.7592,3.7607,3.7605,3.7616,3.7603,3.7567,3.7621,3.7621,3.7611,3.753,3.7518,3.7511,3.7577,3.7576,3.7575,3.753,0,3.7585,3.7562,3.7579,3.7553,3.7544,3.7569,3.7557,3.7559,3.7567,3.756,3.7567,3.7558,3.7579,3.7578,3.7567,3.7573,3.7551,3.7577,3.7565,3.7564,3.7564,3.7503,3.749,3.7448,3.7525,3.7524,3.7523,0,3.7526,3.7526,3.7499,3.751,3.7507,3.7495,3.7494,3.7487,3.749,3.7497,3.7495,3.751,3.7496,3.752,3.75,3.7518,3.7514,3.7517,3.7516,3.7514,3.7541,3.75,3.7435,3.7428,3.7515,3.7515,3.7516,0,3.7474,3.7467,3.745,3.7451,3.7462,3.7454,3.7458,3.7463,3.746,3.7458,3.7457,3.7453,3.745,3.7446,3.746,3.7476,3.7439,3.7464,3.7443,3.7442,3.7433,3.7433,3.7365,3.7431,3.7431,3.7431,3.7431,0,3.7419,3.7402,3.7427,3.7417,3.7398,3.7418,3.7399,3.7406,3.741,3.7401,3.7422,3.7413,3.7432,3.7424,3.7435,3.7417,3.7416,3.742,3.7423,3.7418,3.7417,3.7415,3.7418,3.743,3.743,3.743,3.7431,0,3.7357,3.7374,3.7357,3.7371,3.7373,3.7359,3.737,3.7361,3.7371,3.7359,3.7357,3.7372,3.7364,3.7378,3.7371,3.7379,3.7354,3.7362,3.7353,3.7355,3.7334,3.7336,3.7262,3.7253,3.7325,3.7324,3.7323,0,3.7321,3.7309,3.7322,3.7318,3.7322,3.7315,3.7313,3.7333,3.7329,3.7333,3.7323,3.7318,3.7315,3.7302,3.7311,3.7306,3.7314,3.7288,3.7313,3.7309,3.7313,3.7314,3.7313,3.7283,3.7282,3.7281,3.7281,0,3.7255,3.7265,3.7262,3.7262,3.7259,3.726,3.7262,3.7257,3.7278,3.7273,3.7267,3.7264,3.7259,3.7254,3.7252,3.7255,3.7271,3.7273,3.7268,3.7262,3.7258,3.726,3.7339,3.7274,3.7275,3.7275,3.7276,3.7276,3.7205,3.7196,3.7204,3.72,3.7204,3.7206,3.7198,3.7208,3.7204,3.7203,3.7214,3.7205,3.721,3.721,3.7211,3.7204,3.7215,3.7208,3.7206,3.7204,3.72,3.726,3.7204,3.7204,3.7204,3.7204,3.7205,0,3.7141,3.7148,3.7144,3.7147,3.7144,3.7162,3.7166,3.7162,3.7154,3.7158,3.7155,3.7148,3.7144,3.7154,3.715,3.7143,3.715,3.7141,3.7141,3.7142,3.7191,3.7195,3.7135,3.7135,3.7135,3.7135,3.7135,3.7135,3.7107,3.7092,3.7103,3.709,3.7097,3.709,3.7091,3.7092,3.7096,3.7088,3.7085,3.7092,3.7098,3.7096,3.7092,3.7095,3.7093,3.7081,3.7087,3.7132,3.7138,3.7145,3.7149,3.7081,3.7081,3.7039,3.7038,3.7038]}]]